TimeAKST,TemperatureF,Dew PointF,Humidity,Sea Level PressureIn,VisibilityMPH,Wind Direction,Wind SpeedMPH,Gust SpeedMPH,PrecipitationIn,Events,Conditions,WindDirDegrees,DateUTC
12:16 AM,-14.8,-9999,N/A,30.50,10.0,Calm,Calm,-,N/A,,Clear,0,2014-02-02 09:16:00
12:36 AM,-14.8,-9999,N/A,30.50,10.0,Calm,Calm,-,N/A,,Clear,0,2014-02-02 09:36:00
12:56 AM,-14.8,-9999,N/A,30.50,10.0,Calm,Calm,-,N/A,,Clear,0,2014-02-02 09:56:00
1:16 AM,-14.8,-9999,N/A,30.51,8.0,Calm,Calm,-,N/A,,Clear,0,2014-02-02 10:16:00
1:36 AM,-16.6,-9999,N/A,30.52,10.0,Calm,Calm,-,N/A,,Clear,0,2014-02-02 10:36:00
1:56 AM,-16.6,-9999,N/A,30.52,10.0,Calm,Calm,-,N/A,,Clear,0,2014-02-02 10:56:00
2:16 AM,-16.6,-27.4,58,30.53,10.0,Calm,Calm,-,N/A,,Clear,0,2014-02-02 11:16:00
2:36 AM,-18.4,-9999,N/A,30.53,10.0,Calm,Calm,-,N/A,,Clear,0,2014-02-02 11:36:00
2:56 AM,-16.6,-16.6,100,30.53,9.0,Calm,Calm,-,N/A,,Clear,0,2014-02-02 11:56:00
3:16 AM,-14.8,-9999,N/A,30.53,10.0,Calm,Calm,-,N/A,,Clear,0,2014-02-02 12:16:00
3:36 AM,-14.8,-9999,N/A,30.53,10.0,Calm,Calm,-,N/A,,Clear,0,2014-02-02 12:36:00
3:56 AM,-14.8,-9999,N/A,30.54,10.0,Calm,Calm,-,N/A,,Clear,0,2014-02-02 12:56:00
4:16 AM,-16.6,-9999,N/A,30.55,7.0,Calm,Calm,-,N/A,,Clear,0,2014-02-02 13:16:00
4:36 AM,-16.6,-9999,N/A,30.55,10.0,Calm,Calm,-,N/A,,Clear,0,2014-02-02 13:36:00
4:56 AM,-16.6,-9999,N/A,30.55,10.0,Calm,Calm,-,N/A,,Clear,0,2014-02-02 13:56:00
5:16 AM,-18.4,-9999,N/A,30.55,10.0,Calm,Calm,-,N/A,,Clear,0,2014-02-02 14:16:00
5:36 AM,-16.6,-9999,N/A,30.55,10.0,Calm,Calm,-,N/A,,Clear,0,2014-02-02 14:36:00
5:56 AM,-14.8,-9999,N/A,30.55,10.0,Calm,Calm,-,N/A,,Clear,0,2014-02-02 14:56:00
6:16 AM,-18.4,-9999,N/A,30.56,10.0,Calm,Calm,-,N/A,,Clear,0,2014-02-02 15:16:00
6:36 AM,-18.4,-9999,N/A,30.56,10.0,Calm,Calm,-,N/A,,Clear,0,2014-02-02 15:36:00
6:56 AM,-18.4,-9999,N/A,30.56,10.0,Calm,Calm,-,N/A,,Clear,0,2014-02-02 15:56:00
7:16 AM,-14.8,-9999,N/A,30.56,10.0,Calm,Calm,-,N/A,,Clear,0,2014-02-02 16:16:00
7:36 AM,-14.8,-9999,N/A,30.56,10.0,Calm,Calm,-,N/A,,Clear,0,2014-02-02 16:36:00
7:56 AM,-16.6,-9999,N/A,30.57,10.0,Calm,Calm,-,N/A,,Clear,0,2014-02-02 16:56:00
8:16 AM,-16.6,-9999,N/A,30.57,10.0,Calm,Calm,-,N/A,,Clear,0,2014-02-02 17:16:00
8:36 AM,-14.8,-9999,N/A,30.57,10.0,Calm,Calm,-,N/A,,Clear,0,2014-02-02 17:36:00
8:56 AM,-16.6,-9999,N/A,30.57,10.0,Calm,Calm,-,N/A,,Clear,0,2014-02-02 17:56:00
9:16 AM,-18.4,-9999,N/A,30.57,10.0,Calm,Calm,-,N/A,,Clear,0,2014-02-02 18:16:00
9:36 AM,-16.6,-9999,N/A,30.58,10.0,Calm,Calm,-,N/A,,Clear,0,2014-02-02 18:36:00
9:56 AM,-16.6,-9999,N/A,30.58,10.0,Calm,Calm,-,N/A,,Clear,0,2014-02-02 18:56:00
10:16 AM,-16.6,-9999,N/A,30.59,10.0,Calm,Calm,-,N/A,,Clear,0,2014-02-02 19:16:00
10:36 AM,-18.4,-9999,N/A,30.60,10.0,Calm,Calm,-,N/A,,Clear,0,2014-02-02 19:36:00
10:56 AM,-16.6,-23.8,70,30.61,7.0,Calm,Calm,-,N/A,,Clear,0,2014-02-02 19:56:00
11:16 AM,-14.8,-23.8,64,30.61,9.0,Calm,Calm,-,N/A,,Clear,0,2014-02-02 20:16:00
11:36 AM,-11.2,-20.2,64,30.62,9.0,Calm,Calm,-,N/A,,Clear,0,2014-02-02 20:36:00
11:56 AM,-14.8,-9999,N/A,30.62,8.0,Calm,Calm,-,N/A,,Clear,0,2014-02-02 20:56:00
12:16 PM,-13.0,-9999,N/A,30.63,10.0,Calm,Calm,-,N/A,,Clear,0,2014-02-02 21:16:00
12:36 PM,-11.2,-9999,N/A,30.63,10.0,Calm,Calm,-,N/A,,Clear,0,2014-02-02 21:36:00
12:56 PM,-11.2,-9999,N/A,30.64,10.0,Calm,Calm,-,N/A,,Clear,0,2014-02-02 21:56:00
1:16 PM,-11.2,-9999,N/A,30.64,8.0,Calm,Calm,-,N/A,,Clear,0,2014-02-02 22:16:00
1:36 PM,-9.4,-27.4,41,30.65,8.0,Calm,Calm,-,N/A,,Clear,0,2014-02-02 22:36:00
1:56 PM,-9.4,-22.0,54,30.65,6.0,Calm,Calm,-,N/A,,Clear,0,2014-02-02 22:56:00
2:16 PM,-9.4,-20.2,59,30.66,9.0,Calm,Calm,-,N/A,,Clear,0,2014-02-02 23:16:00
2:36 PM,-9.4,-9.4,100,30.66,10.0,Calm,Calm,-,N/A,,Clear,0,2014-02-02 23:36:00
2:56 PM,-9.4,-27.4,41,30.66,9.0,Calm,Calm,-,N/A,,Clear,0,2014-02-02 23:56:00
3:16 PM,-9.4,-9999,N/A,30.66,10.0,Calm,Calm,-,N/A,,Clear,0,2014-02-03 00:16:00
3:36 PM,-7.6,-9999,N/A,30.66,10.0,Calm,Calm,-,N/A,,Clear,0,2014-02-03 00:36:00
3:56 PM,-11.2,-9999,N/A,30.67,8.0,Calm,Calm,-,N/A,,Clear,0,2014-02-03 00:56:00
4:16 PM,-9.4,-9999,N/A,30.66,10.0,Calm,Calm,-,N/A,,Clear,0,2014-02-03 01:16:00
4:36 PM,-9.4,-9999,N/A,30.66,10.0,Calm,Calm,-,N/A,,Clear,0,2014-02-03 01:36:00
4:56 PM,-11.2,-9999,N/A,30.67,9.0,Calm,Calm,-,N/A,,Clear,0,2014-02-03 01:56:00
5:16 PM,-11.2,-29.2,41,30.67,7.0,Calm,Calm,-,N/A,,Clear,0,2014-02-03 02:16:00
5:36 PM,-11.2,-25.6,49,30.67,10.0,Calm,Calm,-,N/A,,Clear,0,2014-02-03 02:36:00
5:56 PM,-13.0,-29.2,44,30.68,10.0,Calm,Calm,-,N/A,,Clear,0,2014-02-03 02:56:00
6:16 PM,-11.2,-38.2,25,30.68,10.0,Calm,Calm,-,N/A,,Clear,0,2014-02-03 03:16:00
6:36 PM,-13.0,-9999,N/A,30.68,10.0,Calm,Calm,-,N/A,,Clear,0,2014-02-03 03:36:00
6:56 PM,-14.8,-9999,N/A,30.68,10.0,Calm,Calm,-,N/A,,Clear,0,2014-02-03 03:56:00
7:16 PM,-11.2,-9999,N/A,30.68,10.0,Calm,Calm,-,N/A,,Clear,0,2014-02-03 04:16:00
7:36 PM,-9.4,-9999,N/A,30.68,10.0,Calm,Calm,-,N/A,,Clear,0,2014-02-03 04:36:00
7:56 PM,-13.0,-9999,N/A,30.68,10.0,Calm,Calm,-,N/A,,Clear,0,2014-02-03 04:56:00
8:16 PM,-14.8,-9999,N/A,30.70,10.0,Calm,Calm,-,N/A,,Clear,0,2014-02-03 05:16:00
8:36 PM,-13.0,-29.2,44,30.70,10.0,Calm,Calm,-,N/A,,Clear,0,2014-02-03 05:36:00
8:56 PM,-11.2,-23.8,54,30.70,10.0,Calm,Calm,-,N/A,,Clear,0,2014-02-03 05:56:00
9:16 PM,-9.4,-13.0,84,30.70,10.0,Calm,Calm,-,N/A,,Clear,0,2014-02-03 06:16:00
9:36 PM,-11.2,-9999,N/A,30.70,10.0,Calm,Calm,-,N/A,,Clear,0,2014-02-03 06:36:00
9:56 PM,-11.2,-9999,N/A,30.70,10.0,Calm,Calm,-,N/A,,Clear,0,2014-02-03 06:56:00
10:16 PM,-13.0,-9999,N/A,30.70,10.0,Calm,Calm,-,N/A,,Clear,0,2014-02-03 07:16:00
10:36 PM,-9.4,-9999,N/A,30.71,10.0,Calm,Calm,-,N/A,,Clear,0,2014-02-03 07:36:00
10:56 PM,-7.6,-9999,N/A,30.71,10.0,Calm,Calm,-,N/A,,Clear,0,2014-02-03 07:56:00
11:16 PM,-11.2,-9999,N/A,30.72,7.0,Calm,Calm,-,N/A,,Clear,0,2014-02-03 08:16:00
11:36 PM,-11.2,-9999,N/A,30.72,8.0,Calm,Calm,-,N/A,,Clear,0,2014-02-03 08:36:00
11:56 PM,-11.2,-9999,N/A,30.72,5.0,Calm,Calm,-,N/A,,Clear,0,2014-02-03 08:56:00